K9BM Weather Reports


Display with metric or nautical units.
time (UTC)temp
F
wind
direction
speed
MPH
gust
MPH
rain 1hr
in
rain 24hr
in
rain mn
in
humidity
%
barometer
mb
20260509072504 55 257 10.0 12.0 0.00 0.00 0.00 48 1007.7
20260509072004 56 255 9.0 13.0 0.00 0.00 0.00 48 1007.7
20260509071505 56 263 9.0 14.0 0.00 0.00 0.00 47 1007.6
20260509071004 56 256 9.0 14.0 0.00 0.00 0.00 47 1007.6
20260509070005 57 239 8.0 12.0 0.00 0.00 0.00 47 1007.4
20260509065505 57 266 9.0 12.0 0.00 0.00 0.00 47 1007.4
20260509065004 56 249 9.0 12.0 0.00 0.00 0.00 47 1007.4
20260509064504 56 254 6.0 12.0 0.00 0.00 0.00 49 1007.4
20260509064004 56 241 5.0 8.0 0.00 0.00 0.00 50 1007.4
20260509063504 56 236 5.0 9.0 0.00 0.00 0.00 50 1007.3
20260509063005 56 230 5.0 9.0 0.00 0.00 0.00 50 1007.3
20260509062505 56 213 2.0 5.0 0.00 0.00 0.00 50 1007.2
20260509062005 56 211 3.0 6.0 0.00 0.00 0.00 49 1007.2
20260509060005 57 233 3.0 10.0 0.00 0.00 0.00 46 1007.2
20260509055504 58 231 5.0 12.0 0.00 0.00 0.00 45 1007.3
20260509055004 58 240 6.0 12.0 0.00 0.00 0.00 44 1007.3
20260509054504 59 265 8.0 14.0 0.00 0.00 0.00 42 1007.3
20260509054004 59 275 7.0 14.0 0.00 0.00 0.00 42 1007.3
20260509053505 58 281 10.0 14.0 0.00 0.00 0.00 41 1007.2
20260509053004 59 293 9.0 18.0 0.00 0.00 0.00 42 1007.2
20260509052504 59 300 13.0 18.0 0.00 0.00 0.00 42 1007.1
20260509052005 59 315 10.0 17.0 0.00 0.00 0.00 42 1007.1
20260509051504 59 298 13.0 17.0 0.00 0.00 0.00 42 1006.9
20260509051005 58 281 12.0 17.0 0.00 0.00 0.00 45 1007.0
20260509050005 58 277 11.0 14.0 0.00 0.00 0.00 45 1007.0
20260509045504 58 278 8.0 12.0 0.00 0.00 0.00 46 1007.1
20260509044504 58 263 9.0 17.0 0.00 0.00 0.00 45 1007.2
20260509044004 59 274 11.0 17.0 0.00 0.00 0.00 44 1007.2
20260509043504 59 274 10.0 17.0 0.00 0.00 0.00 45 1007.2
20260509043005 59 259 9.0 18.0 0.00 0.00 0.00 45 1007.2
20260509042504 59 257 13.0 18.0 0.00 0.00 0.00 45 1007.3
20260509042005 59 276 10.0 15.0 0.00 0.00 0.00 45 1007.3
20260509041504 59 271 10.0 16.0 0.00 0.00 0.00 45 1007.3
20260509041005 59 270 11.0 16.0 0.00 0.00 0.00 45 1007.3
20260509035504 59 271 8.0 13.0 0.00 0.00 0.00 43 1007.2
20260509035005 60 274 8.0 13.0 0.00 0.00 0.00 42 1007.1
20260509034504 60 259 9.0 14.0 0.00 0.00 0.00 42 1007.0
20260509034005 60 265 7.0 14.0 0.00 0.00 0.00 41 1007.0
20260509033005 61 288 9.0 17.0 0.00 0.00 0.00 39 1007.1
20260509032005 62 295 10.0 17.0 0.00 0.00 0.00 38 1006.8
20260509031504 62 293 11.0 23.0 0.00 0.00 0.00 36 1006.8
20260509031004 63 288 13.0 23.0 0.00 0.00 0.00 34 1006.8
20260509030004 63 285 13.0 20.0 0.00 0.00 0.00 34 1006.5
20260509025504 63 257 7.0 17.0 0.00 0.00 0.00 33 1006.3
20260509025005 63 277 9.0 16.0 0.00 0.00 0.00 33 1006.2
20260509024504 62 281 11.0 16.0 0.00 0.00 0.00 33 1006.2
20260509024005 62 266 9.0 13.0 0.00 0.00 0.00 36 1006.2
20260509023504 62 270 9.0 13.0 0.00 0.00 0.00 35 1006.1
20260509023004 62 266 8.0 12.0 0.00 0.00 0.00 36 1006.0
20260509022504 62 254 9.0 12.0 0.00 0.00 0.00 36 1005.8
20260509021504 63 261 8.0 12.0 0.00 0.00 0.00 34 1005.7
20260509021004 63 272 6.0 9.0 0.00 0.00 0.00 34 1005.7
20260509020004 64 278 6.0 12.0 0.00 0.00 0.00 33 1005.7
20260509015504 64 303 7.0 12.0 0.00 0.00 0.00 32 1005.7
20260509015004 64 283 7.0 10.0 0.00 0.00 0.00 32 1005.7
20260509014504 64 288 6.0 10.0 0.00 0.00 0.00 32 1005.7
20260509014004 64 289 6.0 12.0 0.00 0.01 0.00 32 1005.7
20260509013504 64 282 6.0 12.0 0.00 0.01 0.00 31 1005.8
20260509013004 64 281 8.0 12.0 0.00 0.01 0.00 31 1005.8
20260509012004 65 294 8.0 12.0 0.00 0.01 0.00 31 1005.8
20260509011505 65 290 7.0 10.0 0.00 0.01 0.00 30 1005.8
20260509011004 65 296 7.0 12.0 0.00 0.01 0.00 31 1005.8
20260509005504 66 282 7.0 12.0 0.00 0.01 0.00 30 1005.9
20260509005004 66 305 7.0 14.0 0.00 0.01 0.00 30 1005.9
20260509004504 66 297 7.0 14.0 0.00 0.01 0.00 30 1006.0
20260509004004 66 283 10.0 13.0 0.00 0.01 0.00 29 1006.1
20260509003004 66 286 7.0 13.0 0.00 0.01 0.00 29 1006.2
20260509002505 66 278 7.0 14.0 0.00 0.01 0.00 30 1006.2
20260509002004 66 306 9.0 16.0 0.00 0.01 0.00 29 1006.3
20260509001504 66 298 11.0 16.0 0.00 0.02 0.00 28 1006.3
20260509001004 66 298 10.0 16.0 0.00 0.02 0.00 29 1006.3
20260509000004 67 283 12.0 18.0 0.00 0.02 0.00 28 1006.4
20260508235005 67 296 10.0 17.0 0.00 0.02 0.00 28 1006.4
20260508234504 67 290 13.0 17.0 0.00 0.02 0.00 28 1006.4
20260508234005 67 311 12.0 20.0 0.00 0.02 0.00 27 1006.4
20260508233005 68 286 15.0 20.0 0.00 0.02 0.00 26 1006.4
20260508232505 68 297 9.0 18.0 0.00 0.02 0.00 26 1006.4
20260508232005 68 291 11.0 20.0 0.00 0.02 0.00 25 1006.4
20260508231505 68 282 14.0 23.0 0.00 0.02 0.00 24 1006.4
20260508231005 68 281 15.0 23.0 0.00 0.02 0.00 23 1006.4
20260508230005 69 281 19.0 25.0 0.00 0.02 0.00 21 1006.5
20260508225505 70 293 15.0 24.0 0.00 0.02 0.00 21 1006.4
20260508225005 70 300 16.0 25.0 0.00 0.02 0.00 22 1006.4
20260508224505 71 290 16.0 25.0 0.00 0.02 0.00 22 1006.4
20260508224005 70 286 14.0 29.0 0.00 0.02 0.00 20 1006.5
20260508223505 71 307 17.0 29.0 0.00 0.02 0.00 20 1006.6
20260508223005 71 288 16.0 25.0 0.00 0.02 0.00 20 1006.6
20260508222505 71 290 13.0 22.0 0.00 0.02 0.00 21 1006.7
20260508222005 71 291 12.0 22.0 0.00 0.02 0.00 21 1006.8
20260508221505 71 297 14.0 21.0 0.00 0.02 0.00 21 1006.7
20260508221006 70 302 16.0 21.0 0.00 0.02 0.00 20 1006.8
20260508215005 70 270 13.0 20.0 0.00 0.02 0.00 23 1006.9
20260508214505 69 269 12.0 18.0 0.00 0.02 0.00 24 1007.1
20260508213505 70 315 13.0 20.0 0.00 0.02 0.00 25 1007.1
20260508213005 69 301 14.0 20.0 0.00 0.02 0.00 25 1007.2
20260508212005 69 280 13.0 18.0 0.00 0.02 0.00 24 1007.4
20260508211505 68 297 11.0 20.0 0.00 0.02 0.00 26 1007.3
20260508211005 68 264 10.0 20.0 0.00 0.02 0.00 24 1007.4
20260508210004 68 276 12.0 18.0 0.00 0.02 0.00 25 1007.6
20260508205505 68 296 14.0 17.0 0.00 0.02 0.00 24 1007.7
20260508205005 68 276 11.0 15.0 0.00 0.02 0.00 31 1007.8
20260508204505 67 256 8.0 16.0 0.00 0.02 0.00 31 1007.9
20260508203505 67 294 12.0 18.0 0.00 0.02 0.00 31 1008.1
20260508203005 66 251 10.0 20.0 0.00 0.02 0.00 33 1008.1
20260508202505 65 237 10.0 20.0 0.00 0.02 0.00 32 1008.2
20260508202005 65 306 13.0 18.0 0.00 0.02 0.00 28 1008.2
20260508201505 65 273 7.0 20.0 0.00 0.02 0.00 31 1008.3
20260508201006 65 238 9.0 20.0 0.00 0.02 0.00 31 1008.4
20260508200005 65 264 14.0 21.0 0.00 0.02 0.00 33 1008.3
20260508195505 64 253 14.0 22.0 0.00 0.02 0.00 32 1008.3
20260508195005 64 268 12.0 22.0 0.00 0.02 0.00 33 1008.3
20260508194505 64 279 16.0 21.0 0.00 0.02 0.00 34 1008.4
20260508193505 65 276 10.0 20.0 0.00 0.02 0.00 37 1008.4
20260508193006 65 271 15.0 20.0 0.00 0.02 0.00 34 1008.5
20260508192505 66 282 13.0 18.0 0.00 0.02 0.00 35 1008.5
20260508191505 65 299 12.0 20.0 0.00 0.02 0.00 37 1008.6
20260508191005 65 256 13.0 20.0 0.00 0.02 0.00 38 1008.6
20260508190005 64 281 10.0 17.0 0.00 0.02 0.00 38 1008.7
20260508185505 64 277 11.0 20.0 0.00 0.02 0.00 38 1008.8
20260508185005 64 275 15.0 20.0 0.00 0.02 0.00 37 1008.9
20260508184005 64 261 13.0 24.0 0.00 0.02 0.00 37 1008.9
20260508183005 64 286 15.0 23.0 0.00 0.02 0.00 41 1009.1
20260508182505 64 286 14.0 21.0 0.00 0.02 0.00 39 1009.1
20260508182005 64 277 12.0 21.0 0.00 0.02 0.00 42 1009.2
20260508181505 64 286 12.0 17.0 0.00 0.02 0.00 42 1009.2
20260508181005 64 282 13.0 18.0 0.00 0.02 0.00 41 1009.3
20260508180005 64 271 13.0 25.0 0.00 0.02 0.00 42 1009.4
20260508175505 64 276 13.0 25.0 0.00 0.02 0.00 41 1009.6
20260508174505 64 284 14.0 24.0 0.00 0.02 0.00 42 1009.8
20260508173505 63 272 13.0 20.0 0.00 0.02 0.00 42 1010.0
20260508173005 64 282 14.0 20.0 0.00 0.02 0.00 40 1010.1
20260508172505 63 289 16.0 20.0 0.00 0.02 0.00 42 1010.1
20260508172005 63 279 15.0 22.0 0.00 0.02 0.00 43 1010.2
20260508171504 63 286 12.0 22.0 0.00 0.02 0.00 45 1010.2
20260508171005 63 285 13.0 22.0 0.00 0.02 0.00 44 1010.1
20260508170005 62 279 13.0 20.0 0.00 0.02 0.00 45 1010.1
20260508165505 62 285 13.0 17.0 0.00 0.02 0.00 45 1010.2
20260508164505 61 257 13.0 18.0 0.00 0.02 0.00 48 1010.3
20260508164005 61 255 12.0 17.0 0.00 0.02 0.00 49 1010.3
20260508163505 61 258 12.0 17.0 0.00 0.02 0.00 50 1010.4
20260508163005 60 286 12.0 16.0 0.00 0.02 0.00 51 1010.3
20260508162504 60 272 13.0 18.0 0.00 0.02 0.00 52 1010.4
20260508161505 59 263 11.0 20.0 0.00 0.02 0.00 53 1010.4
20260508161005 60 252 14.0 20.0 0.00 0.02 0.00 52 1010.3
20260508160005 59 261 12.0 17.0 0.00 0.02 0.00 55 1010.4
20260508155505 59 250 11.0 16.0 0.00 0.02 0.00 55 1010.4
20260508155005 58 268 12.0 16.0 0.00 0.02 0.00 55 1010.5
20260508154505 58 270 10.0 14.0 0.00 0.02 0.00 55 1010.6
20260508153505 57 245 5.0 9.0 0.00 0.02 0.00 57 1010.7
20260508153004 57 262 4.0 8.0 0.00 0.02 0.00 58 1010.8
20260508152504 56 241 3.0 8.0 0.00 0.02 0.00 59 1010.9
20260508152004 56 254 5.0 8.0 0.00 0.02 0.00 62 1010.9
20260508151505 55 265 3.0 9.0 0.00 0.02 0.00 61 1011.0
20260508151004 55 267 6.0 12.0 0.00 0.02 0.00 61 1011.1
20260508150005 54 268 9.0 12.0 0.00 0.02 0.00 61 1011.2
20260508145505 54 254 9.0 12.0 0.00 0.02 0.00 59 1011.3
20260508145005 53 240 6.0 9.0 0.00 0.02 0.00 60 1011.4
20260508144504 53 252 6.0 9.0 0.00 0.02 0.00 62 1011.4
20260508144005 53 271 6.0 10.0 0.00 0.02 0.00 64 1011.4
20260508143505 53 265 7.0 12.0 0.00 0.02 0.00 64 1011.4
20260508142505 52 251 7.0 12.0 0.00 0.02 0.00 64 1011.5
20260508142005 51 241 7.0 10.0 0.00 0.02 0.00 65 1011.5
20260508141005 49 230 6.0 9.0 0.00 0.02 0.00 69 1011.6
20260508135508 49 212 6.0 10.0 0.00 0.02 0.00 68 1011.6
20260508135005 49 227 7.0 12.0 0.00 0.02 0.00 68 1011.7
20260508134505 49 233 6.0 12.0 0.00 0.02 0.00 68 1011.6
20260508134005 48 232 7.0 10.0 0.00 0.02 0.00 69 1011.7
20260508133005 48 218 6.0 9.0 0.00 0.02 0.00 69 1011.6
20260508132504 48 225 6.0 9.0 0.00 0.02 0.00 69 1011.6
20260508132005 49 213 6.0 9.0 0.00 0.02 0.00 68 1011.7
20260508131005 49 231 5.0 9.0 0.00 0.02 0.00 67 1011.6
20260508130005 50 228 6.0 12.0 0.00 0.02 0.00 67 1011.5
20260508125505 49 225 7.0 12.0 0.00 0.02 0.00 67 1011.4
20260508124504 48 228 7.0 12.0 0.00 0.02 0.00 69 1011.3
20260508124004 48 226 6.0 10.0 0.00 0.02 0.00 70 1011.3
20260508123505 48 224 7.0 12.0 0.00 0.02 0.00 70 1011.3
20260508122505 47 222 7.0 12.0 0.00 0.02 0.00 71 1011.2
20260508122005 47 200 9.0 12.0 0.00 0.02 0.00 72 1011.1
20260508121505 47 199 7.0 14.0 0.00 0.02 0.00 72 1011.1
20260508120005 48 212 6.0 12.0 0.00 0.02 0.00 71 1011.2
20260508115504 48 222 6.0 13.0 0.00 0.02 0.00 71 1011.2
20260508115005 47 204 9.0 13.0 0.00 0.02 0.00 72 1011.1
20260508114504 47 208 7.0 12.0 0.00 0.02 0.00 73 1011.1
20260508114005 47 206 7.0 13.0 0.00 0.02 0.00 74 1011.0
20260508113504 47 211 8.0 13.0 0.00 0.02 0.00 74 1011.1
20260508113005 47 204 10.0 13.0 0.00 0.02 0.00 74 1011.0
20260508112504 47 206 8.0 13.0 0.00 0.02 0.00 74 1011.1
20260508112004 47 205 8.0 13.0 0.00 0.02 0.00 74 1011.0
20260508111505 47 208 7.0 13.0 0.00 0.02 0.00 74 1011.1
20260508110004 47 226 5.0 9.0 0.00 0.02 0.00 74 1011.1
20260508105504 47 237 6.0 9.0 0.00 0.02 0.00 73 1011.2
20260508104005 47 244 7.0 12.0 0.00 0.02 0.00 73 1011.2
20260508103505 47 236 8.0 13.0 0.00 0.02 0.00 72 1011.2
20260508103005 47 241 9.0 13.0 0.00 0.02 0.00 73 1011.2
20260508102504 47 233 10.0 13.0 0.00 0.02 0.00 73 1011.1
20260508102005 46 233 8.0 12.0 0.00 0.02 0.00 74 1011.0
20260508101504 46 233 8.0 12.0 0.00 0.02 0.00 75 1010.9
20260508101005 46 227 7.0 12.0 0.00 0.02 0.00 76 1010.9
20260508100004 44 233 7.0 9.0 0.00 0.02 0.00 78 1010.9
20260508095504 45 234 5.0 7.0 0.00 0.02 0.00 78 1010.9
20260508095005 45 233 5.0 9.0 0.00 0.02 0.00 77 1010.9
20260508094505 46 231 5.0 9.0 0.00 0.02 0.00 76 1010.9
20260508094005 46 242 6.0 10.0 0.00 0.02 0.00 75 1010.9
20260508093504 46 231 7.0 10.0 0.00 0.02 0.00 75 1010.8
20260508093004 46 242 7.0 12.0 0.00 0.02 0.00 75 1010.8
20260508092504 47 235 6.0 12.0 0.00 0.02 0.00 75 1010.8
20260508092004 47 238 7.0 12.0 0.00 0.02 0.00 74 1010.9
20260508091005 47 237 9.0 12.0 0.00 0.02 0.00 74 1010.8
20260508090005 47 234 9.0 12.0 0.00 0.02 0.00 74 1010.8
20260508085504 47 238 7.0 10.0 0.00 0.02 0.00 75 1010.8
20260508085005 47 238 6.0 10.0 0.00 0.02 0.00 75 1010.8
20260508084505 47 230 6.0 10.0 0.00 0.02 0.00 75 1010.7
20260508083005 46 238 6.0 12.0 0.00 0.02 0.00 76 1010.8
20260508081504 46 233 5.0 12.0 0.00 0.02 0.00 78 1010.7
20260508075004 47 221 5.0 12.0 0.00 0.02 0.00 78 1011.0
20260508074504 47 237 8.0 12.0 0.00 0.02 0.00 78 1011.1
20260508073004 47 235 7.0 12.0 0.00 0.02 0.00 79 1011.0